Flag for Poland Weather past 2 weeks in Lublin, Poland

Now
50 °F

Overcast.


Feels Like: 50 °F
Forecast: 52 / 66 °F
Wind: 2 mph from Northeast

Location: Lublin Radawiec

Current Time: May 23, 2015 at 8:14:50 AM

Latest Report: May 23, 2015 at 7:00 AM


Visibility: 19 mi

Pressure: 30.12 "Hg

Humidity: 89%

Dew point: 47 °F

Location of LublinLocation

Historic Weather in Lublin — Graph

°F

Lublin temperature yesterday

Maximum temperature yesterday: 57 °F (at 3:00 PM)
Minimum temperature yesterday: 48 °F (at 7:00 AM)
Average temperature yesterday: 52 °F

Past Weeks' High & Low Weather Summary

 TemperatureHumidityPressure
High77 °F (May 19, 5:00 PM)99% (May 12, 3:00 AM)30.39 "Hg (May 12, 3:00 AM)
Low38 °F (May 16, 5:00 AM)34% (May 19, 4:00 PM)29.73 "Hg (May 14, 12:00 PM)
Average54 °F73%30.04 "Hg
* Reported May 8 7:00 AM — May 23 7:00 AM, Lublin, Weather by CustomWeather, © 2015

Note: Actual official high and low records may vary slightly from our data, if they occured in-between our weather recording intervals... More about our weather records

Advertising

Lublin weather history for previous 24 hours

 ConditionsComfort  
Time TempWeatherWind HumidityBarometerVisibility
7:00 AM
Sat, May 23
50 °FOvercast.2 mph89%30.12 "Hg19 mi
6:00 AM49 °FOvercast.1 mph93%30.12 "Hg16 mi
4:00 AM48 °FOvercast.1 mph92%30.15 "Hg19 mi
3:00 AM46 °FPassing clouds.1 mph92%30.17 "Hg11 mi
2:00 AM47 °FPassing clouds.1 mph92%30.18 "Hg12 mi
1:00 AM46 °FPassing clouds.1 mph92%30.19 "Hg9 mi
12:00 AM47 °FPassing clouds.1 mph91%30.20 "Hg11 mi
10:00 PM
Fri, May 22
49 °FOvercast.1 mph87%30.21 "Hg16 mi
9:00 PM52 °FOvercast.1 mph79%30.22 "Hg22 mi
8:00 PM54 °FOvercast.1 mph76%30.21 "Hg28 mi
7:00 PM56 °FOvercast.1 mph69%30.21 "Hg25 mi
6:00 PM57 °FOvercast.2 mph69%30.21 "Hg28 mi
5:00 PM56 °FOvercast.3 mph68%30.21 "Hg28 mi
4:00 PM57 °FOvercast.3 mph69%30.22 "Hg25 mi
3:00 PM57 °FOvercast.3 mph67%30.22 "Hg25 mi
2:00 PM56 °FOvercast.3 mph69%30.23 "Hg28 mi
1:00 PM55 °FOvercast.3 mph75%30.24 "Hg25 mi
12:00 PM55 °FOvercast.3 mph74%30.24 "Hg25 mi
11:00 AM53 °FOvercast.5 mph77%30.24 "Hg25 mi
10:00 AM52 °FOvercast.3 mph80%30.23 "Hg31 mi
9:00 AM50 °FOvercast.5 mph88%30.22 "Hg25 mi
8:00 AM49 °FSprinkles. Low clouds.3 mph94%30.22 "Hg12 mi
Weather by CustomWeather, © 2015

See weather overviewHow to use our weather pages